GW6458 Weather Reports


Display with metric or nautical units.
time (UTC)temp
F
wind
direction
speed
MPH
gust
MPH
rain 1hr
in
rain 24hr
in
rain mn
in
humidity
%
barometer
mb
20260507104613 51 248 5.0 9.0 0.01 0.39 0.01 86 1014.3
20260507104117 51 0 6.0 9.0 0.01 0.39 0.01 86 1014.4
20260507103613 51 295 3.0 7.0 0.01 0.39 0.01 85 1014.4
20260507103545 51 0 4.0 7.0 0.01 0.39 0.01 84 1014.4
20260507102613 51 269 5.0 10.0 0.00 0.39 0.00 83 1014.2
20260507102113 51 0 5.0 15.0 0.00 0.39 0.00 81 1014.3
20260507101622 52 0 7.0 15.0 0.00 0.39 0.00 79 1014.3
20260507101114 53 216 5.0 10.0 0.00 0.39 0.00 79 1014.3
20260507100613 53 252 6.0 10.0 0.00 0.39 0.00 78 1014.1
20260507100137 53 265 7.0 10.0 0.00 0.39 0.00 78 1014.1
20260507095613 53 244 5.0 10.0 0.00 0.39 0.00 78 1014.0
20260507095111 53 243 6.0 10.0 0.00 0.39 0.00 78 1014.0
20260507094610 53 231 3.0 6.0 0.00 0.39 0.00 78 1013.9
20260507094111 0 0.0 0.0 0.00 0.39 0.00
20260507093607 53 227 3.0 7.0 0.00 0.39 0.00 78 1013.8
20260507093501 53 227 3.0 9.0 0.00 0.39 0.00 78 1013.8
20260507092710 53 244 5.0 9.0 0.00 0.39 0.00 80 1013.8
20260507092628 53 238 4.0 9.0 0.00 0.39 0.00 79 1013.8
20260507091604 53 257 4.0 9.0 0.00 0.39 0.00 79 1013.7
20260507091313 53 226 4.0 8.0 0.00 0.39 0.00 79 1013.7
20260507090124 53 250 3.0 7.0 0.00 0.39 0.00 79 1013.5
20260507085608 53 231 3.0 7.0 0.00 0.39 0.00 79 1013.5
20260507085111 53 230 3.0 8.0 0.00 0.39 0.00 79 1013.5
20260507084602 53 220 6.0 8.0 0.00 0.39 0.00 80 1013.5
20260507084104 53 275 3.0 8.0 0.00 0.39 0.00 81 1013.5
20260507084044 53 192 3.0 8.0 0.00 0.39 0.00 80 1013.4
20260507083106 53 252 3.0 6.0 0.00 0.39 0.00 81 1013.4
20260507082607 53 231 1.0 6.0 0.00 0.39 0.00 80 1013.4
20260507082106 53 279 3.0 7.0 0.00 0.39 0.00 80 1013.4
20260507081600 53 262 3.0 9.0 0.00 0.39 0.00 80 1013.4
20260507081058 53 248 6.0 11.0 0.00 0.39 0.00 80 1013.3
20260507080600 53 254 5.0 11.0 0.00 0.39 0.00 80 1013.3
20260507080126 53 223 5.0 11.0 0.00 0.39 0.00 79 1013.4
20260507075559 53 264 6.0 9.0 0.00 0.39 0.00 79 1013.4
20260507075058 53 224 4.0 12.0 0.00 0.39 0.00 79 1013.3
20260507074616 54 233 5.0 10.0 0.00 0.39 0.00 79 1013.2
20260507074559 53 240 7.0 12.0 0.00 0.39 0.00 78 1013.3
20260507073557 54 285 6.0 10.0 0.00 0.39 0.00 80 1013.1
20260507073059 53 247 5.0 14.0 0.00 0.39 0.00 81 1013.0
20260507072555 53 274 8.0 14.0 0.00 0.39 0.00 81 1013.0
20260507072052 53 235 5.0 12.0 0.00 0.39 0.00 80 1013.0
20260507071554 53 247 8.0 12.0 0.00 0.39 0.00 79 1012.9
20260507071053 53 245 4.0 11.0 0.00 0.39 0.00 83 1013.0
20260507070552 53 228 5.0 11.0 0.00 0.39 0.00 82 1012.9
20260507070252 51 195 3.0 9.0 0.00 0.39 0.00 84 1012.8
20260507070121 52 168 5.0 9.0 0.00 0.39 0.00 83 1012.8
20260507065050 51 213 4.0 10.0 0.00 0.39 0.00 85 1012.7
20260507064549 50 223 3.0 10.0 0.00 0.39 0.00 85 1012.7
20260507064049 50 233 4.0 10.0 0.00 0.39 0.00 85 1012.5
20260507063549 50 212 5.0 10.0 0.00 0.39 0.00 85 1012.7
20260507063540 50 233 6.0 9.0 0.00 0.39 0.00 86 1012.5
20260507062551 50 240 2.0 7.0 0.00 0.39 0.00 87 1012.5
20260507062051 50 196 3.0 7.0 0.00 0.39 0.00 87 1012.4
20260507061549 49 213 3.0 6.0 0.00 0.39 0.00 87 1012.4
20260507061050 49 230 2.0 9.0 0.00 0.39 0.00 87 1012.4
20260507060954 49 219 3.0 9.0 0.00 0.39 0.00 87 1012.4
20260507060104 49 247 4.0 9.0 0.00 0.39 0.00 87 1012.4
20260507060001 49 219 4.0 9.0 0.00 0.39 0.00 88 1012.3
20260507055047 49 238 3.0 8.0 0.00 0.39 0.00 88 1012.3
20260507054548 49 230 3.0 8.0 0.00 0.39 0.00 88 1012.2
20260507054047 49 226 4.0 9.0 0.00 0.39 0.00 89 1012.1
20260507053547 48 219 5.0 9.0 0.00 0.39 0.00 90 1012.0
20260507053042 48 221 2.0 7.0 0.00 0.39 0.00 91 1012.0
20260507052546 47 226 5.0 7.0 0.00 0.39 0.00 92 1011.9
20260507052050 47 213 2.0 7.0 0.00 0.39 0.00 93 1011.8
20260507051553 46 197 0.0 1.0 0.00 0.39 0.00 93 1012.0
20260507051150 46 221 0.0 2.0 0.00 0.39 0.00 93 1011.9
20260507051049 46 221 0.0 2.0 0.00 0.39 0.00 93 1011.9
20260507050106 45 221 0.0 3.0 0.00 0.39 0.00 93 1011.7
20260507045534 44 221 0.0 3.0 0.00 0.39 0.00 93 1011.7
20260507045036 44 221 0.0 3.0 0.00 0.39 0.00 93 1011.7
20260507044534 43 221 0.0 2.0 0.00 0.39 0.00 92 1011.7
20260507044035 43 221 0.0 1.0 0.00 0.39 0.00 92 1011.7
20260507043539 43 221 0.0 1.0 0.00 0.39 0.00 92 1011.5
20260507043044 42 221 0.0 1.0 0.00 0.39 0.00 91 1011.5
20260507043027 42 221 0.0 0.0 0.00 0.39 0.00 91 1011.4
20260507042036 43 221 0.0 0.0 0.00 0.39 0.00 91 1011.3
20260507041535 43 221 0.0 0.0 0.00 0.39 0.00 91 1011.4
20260507041058 44 221 0.0 1.0 0.00 0.39 0.00 91 1011.4
20260507041041 43 221 0.0 0.0 0.00 0.39 0.00 90 1011.4
20260507040055 44 221 0.0 1.0 0.00 0.39 0.00 91 1011.5
20260507035527 44 221 0.0 0.0 0.00 0.39 0.00 91 1011.5
20260507035021 44 221 0.0 0.0 0.00 0.39 0.00 91 1011.4
20260507034524 44 221 0.0 1.0 0.00 0.39 0.00 90 1011.4
20260507034027 44 221 0.0 1.0 0.00 0.39 0.00 91 1011.3
20260507033520 45 221 0.0 2.0 0.00 0.39 0.00 91 1011.2
20260507033019 45 221 0.0 2.0 0.00 0.39 0.00 91 1011.1
20260507032516 45 221 1.0 2.0 0.00 0.39 0.00 91 1011.2
20260507032014 45 221 1.0 2.0 0.00 0.39 0.00 91 1011.2
20260507031714 45 221 1.0 3.0 0.00 0.39 0.00 91 1011.1
20260507030512 45 219 1.0 3.0 0.00 0.39 0.00 91 1011.1
20260507030014 45 213 1.0 3.0 0.00 0.39 0.00 91 1011.0
20260507025512 45 209 1.0 3.0 0.00 0.39 0.00 92 1011.0
20260507025010 44 207 1.0 3.0 0.00 0.39 0.00 91 1011.0
20260507024509 45 216 1.0 3.0 0.00 0.39 0.00 91 1011.0
20260507024008 45 216 0.0 3.0 0.00 0.39 0.00 91 1010.9
20260507023512 45 217 0.0 6.0 0.00 0.39 0.00 91 1010.8
20260507023036 45 217 0.0 8.0 0.00 0.39 0.00 92 1010.8
20260507022528 45 247 4.0 8.0 0.00 0.39 0.00 92 1010.8
20260507021636 44 207 1.0 2.0 0.00 0.39 0.00 91 1010.9
20260507021531 44 212 2.0 3.0 0.00 0.39 0.00 92 1010.9
20260507020521 44 207 1.0 1.0 0.00 0.39 0.00 91 1010.9
20260507020029 44 207 0.0 1.0 0.00 0.39 0.00 91 1010.9
20260507015515 45 207 0.0 0.0 0.00 0.39 0.00 91 1010.8
20260507015022 45 207 0.0 1.0 0.00 0.39 0.00 91 1010.8
20260507014522 45 207 0.0 1.0 0.00 0.39 0.00 91 1010.8
20260507014007 45 207 0.0 1.0 0.00 0.39 0.00 91 1010.8
20260507013509 45 207 0.0 2.0 0.00 0.39 0.00 91 1010.7
20260507013009 45 207 0.0 3.0 0.00 0.39 0.00 91 1010.7
20260507012516 45 207 1.0 3.0 0.00 0.39 0.00 91 1010.7
20260507012022 45 207 1.0 3.0 0.00 0.39 0.00 91 1010.6
20260507011510 45 206 1.0 2.0 0.00 0.39 0.00 91 1010.6
20260507011008 45 204 1.0 3.0 0.00 0.39 0.00 91 1010.6
20260507010505 45 204 0.0 3.0 0.00 0.39 0.00 91 1010.6
20260507010009 45 203 1.0 3.0 0.00 0.39 0.00 91 1010.6
20260507005506 45 200 2.0 2.0 0.00 0.39 0.00 91 1010.7
20260507005007 45 200 1.0 1.0 0.00 0.39 0.00 90 1010.6
20260507004516 46 200 0.0 1.0 0.00 0.39 0.00 90 1010.6
20260507004013 46 200 0.0 1.0 0.00 0.39 0.00 89 1010.4
20260507003527 46 200 0.0 1.0 0.00 0.39 0.00 89 1010.4
20260507003027 46 200 0.0 1.0 0.00 0.39 0.00 89 1010.4
20260507002522 47 200 0.0 2.0 0.00 0.39 0.00 89 1010.4
20260507002446 47 200 0.0 2.0 0.00 0.39 0.00 89 1010.4
20260507001941 47 200 1.0 2.0 0.00 0.39 0.00 89 1010.4
20260507001025 47 200 2.0 3.0 0.00 0.39 0.00 89 1010.4
20260507000511 47 200 2.0 3.0 0.00 0.39 0.00 89 1010.5
20260507000011 48 200 1.0 3.0 0.00 0.39 0.00 89 1010.7
20260506235505 48 213 1.0 5.0 0.00 0.39 0.00 89 1010.5
20260506235004 48 212 2.0 5.0 0.00 0.39 0.00 89 1010.6
20260506234901 48 214 2.0 5.0 0.00 0.39 0.00 89 1010.6
20260506234008 48 241 1.0 5.0 0.00 0.39 0.00 89 1010.5
20260506233508 48 247 3.0 5.0 0.00 0.39 0.00 89 1010.5
20260506233003 48 214 1.0 5.0 0.00 0.39 0.00 89 1010.5
20260506232500 48 210 1.0 3.0 0.00 0.39 0.00 89 1010.5
20260506232003 48 206 2.0 3.0 0.00 0.39 0.00 89 1010.4
20260506231500 48 206 1.0 3.0 0.00 0.39 0.00 89 1010.4
20260506231000 49 210 1.0 3.0 0.00 0.39 0.00 89 1010.5
20260506230501 49 209 2.0 3.0 0.00 0.39 0.00 89 1010.5
20260506230014 49 220 1.0 3.0 0.00 0.39 0.00 88 1010.4
20260506225502 49 214 1.0 5.0 0.00 0.39 0.00 88 1010.4
20260506225416 49 216 1.0 5.0 0.00 0.39 0.00 88 1010.2
20260506224958 49 216 2.0 3.0 0.00 0.39 0.00 88 1010.4
20260506224000 49 262 1.0 6.0 0.00 0.39 0.00 88 1010.2
20260506223554 49 223 2.0 7.0 0.00 0.39 0.00 88 1010.5
20260506223515 49 220 2.0 7.0 0.00 0.39 0.00 88 1010.4
20260506222933 49 223 3.0 6.0 0.00 0.39 0.00 88 1010.4
20260506222002 49 209 1.0 6.0 0.00 0.39 0.00 88 1010.2
20260506221502 49 193 2.0 6.0 0.00 0.39 0.00 88 1010.1
20260506221001 50 196 2.0 6.0 0.00 0.39 0.00 87 1010.1
20260506220525 50 212 1.0 3.0 0.00 0.39 0.00 87 1010.1
20260506220005 50 214 2.0 3.0 0.00 0.39 0.39 87 1010.0
20260506215503 50 216 2.0 5.0 0.00 0.39 0.39 87 1009.9
20260506215004 50 219 2.0 5.0 0.00 0.39 0.39 86 1009.9
20260506214501 50 207 2.0 5.0 0.00 0.39 0.39 86 1009.9
20260506214001 50 204 1.0 6.0 0.00 0.39 0.39 86 1010.0
20260506213506 50 206 2.0 7.0 0.00 0.39 0.39 86 1010.0
20260506213002 50 212 4.0 7.0 0.00 0.39 0.39 86 1009.9
20260506212503 51 206 2.0 8.0 0.00 0.39 0.39 86 1009.9
20260506212004 51 207 4.0 8.0 0.00 0.39 0.39 87 1009.8
20260506211502 51 206 4.0 7.0 0.00 0.39 0.39 87 1009.7
20260506211002 51 243 4.0 9.0 0.00 0.39 0.39 87 1009.7
20260506210538 51 224 3.0 7.0 0.00 0.39 0.39 86 1009.5
20260506210513 51 233 4.0 9.0 0.00 0.39 0.39 86 1009.7
20260506210011 51 209 3.0 7.0 0.00 0.39 0.39 86 1009.6
20260506205004 51 228 2.0 8.0 0.00 0.39 0.39 86 1009.5
20260506204506 51 207 3.0 11.0 0.00 0.39 0.39 86 1009.4
20260506204112 51 204 3.0 10.0 0.00 0.39 0.39 87 1009.5
20260506204020 51 223 4.0 11.0 0.00 0.39 0.39 86 1009.5
20260506203005 51 207 4.0 12.0 0.00 0.39 0.39 87 1009.4
20260506202506 51 196 8.0 12.0 0.00 0.39 0.39 87 1009.6
20260506202003 52 219 5.0 11.0 0.00 0.39 0.39 87 1009.3
20260506201503 52 220 5.0 9.0 0.00 0.39 0.39 87 1009.3
20260506201005 52 193 4.0 7.0 0.00 0.39 0.39 87 1009.3
20260506200504 52 166 2.0 9.0 0.00 0.39 0.39 86 1009.2
20260506200005 52 254 3.0 9.0 0.00 0.39 0.39 86 1009.0
20260506195505 53 250 4.0 11.0 0.00 0.39 0.39 86 1009.0
20260506195004 53 212 4.0 11.0 0.00 0.39 0.39 86 1008.9
20260506194503 53 244 6.0 15.0 0.00 0.39 0.39 87 1008.7
20260506194004 53 262 8.0 15.0 0.00 0.39 0.39 87 1008.7
20260506193502 53 252 6.0 14.0 0.00 0.39 0.39 87 1008.5
20260506193003 53 265 7.0 14.0 0.00 0.39 0.39 87 1008.5
20260506192918 53 257 6.0 12.0 0.00 0.39 0.39 87 1008.5
20260506192001 53 251 6.0 17.0 0.00 0.39 0.39 87 1008.3
20260506191501 53 238 8.0 17.0 0.00 0.39 0.39 87 1008.3
20260506191005 53 238 5.0 10.0 0.00 0.39 0.39 87 1008.3
20260506190506 53 238 5.0 11.0 0.00 0.39 0.39 87 1008.1
20260506190002 53 237 5.0 16.0 0.00 0.39 0.39 87 1007.9
20260506185459 53 214 7.0 16.0 0.00 0.39 0.39 87 1007.8
20260506185000 53 237 5.0 11.0 0.00 0.39 0.39 87 1007.7
20260506184502 53 237 6.0 11.0 0.01 0.39 0.39 87 1007.7
20260506184001 53 195 5.0 14.0 0.01 0.39 0.39 87 1007.8
20260506183701 53 0 7.0 14.0 0.01 0.39 0.39 87 1007.6
20260506182500 53 214 5.0 14.0 0.01 0.39 0.39 86 1007.6
20260506181958 53 226 7.0 14.0 0.01 0.39 0.39 85 1007.6
20260506181501 53 240 5.0 14.0 0.01 0.39 0.39 85 1007.5
20260506181429 54 258 6.0 19.0 0.01 0.39 0.39 84 1007.4
20260506180456 55 223 10.0 19.0 0.01 0.39 0.39 83 1007.4
20260506175955 56 196 8.0 18.0 0.01 0.39 0.39 84 1007.3
20260506175456 57 216 6.0 17.0 0.01 0.39 0.39 85 1007.1
20260506174955 57 197 4.0 8.0 0.01 0.39 0.39 87 1006.8
20260506174656 57 214 4.0 8.0 0.00 0.39 0.39 86 1006.6
20260506173501 57 185 2.0 8.0 0.00 0.39 0.39 87 1006.3
20260506172958 57 202 3.0 8.0 0.00 0.39 0.39 87 1006.1
20260506172457 57 176 4.0 7.0 0.00 0.39 0.39 89 1006.0
20260506171956 57 192 2.0 3.0 0.00 0.39 0.39 90 1005.9
20260506171457 57 162 1.0 2.0 0.01 0.39 0.39 90 1005.5
20260506170953 56 162 1.0 2.0 0.02 0.39 0.39 90 1005.4
20260506170454 56 82 0.0 0.0 0.02 0.39 0.39 90 1005.3
20260506165954 56 82 0.0 0.0 0.04 0.35 0.39 90 1005.2
20260506165456 56 82 0.0 0.0 0.06 0.35 0.39 90 1005.1
20260506164955 56 82 0.0 1.0 0.09 0.35 0.39 91 1005.0
20260506164454 56 82 0.0 2.0 0.09 0.35 0.39 90 1005.1
20260506163954 55 82 0.0 2.0 0.13 0.35 0.39 91 1005.1
20260506163454 55 82 1.0 7.0 0.16 0.35 0.39 91 1005.1
20260506162955 55 82 3.0 8.0 0.21 0.35 0.39 91 1004.8
20260506162454 54 0 4.0 8.0 0.30 0.35 0.39 90 1004.8
20260506161956 53 0 3.0 6.0 0.33 0.35 0.39 90 1005.0
20260506161453 53 224 1.0 8.0 0.33 0.35 0.38 89 1005.6
20260506161009 53 0 3.0 12.0 0.33 0.35 0.37 89 1005.6
20260506160510 53 324 5.0 12.0 0.34 0.35 0.35 89 1005.9
20260506155953 53 266 2.0 7.0 0.33 0.02 0.34 90 1006.3
20260506155453 53 47 2.0 5.0 0.31 0.02 0.31 88 1006.8
20260506155152 53 233 0.0 2.0 0.29 0.02 0.30 88 1006.7
20260506153953 53 233 0.0 7.0 0.26 0.02 0.26 86 1006.6
20260506153455 54 233 2.0 15.0 0.23 0.02 0.22 84 1006.7
20260506152955 55 207 2.0 18.0 0.17 0.02 0.16 82 1007.0
20260506152926 57 250 12.0 19.0 0.09 0.02 0.07 77 1007.0
20260506151953 59 248 10.0 19.0 0.06 0.02 0.06 78 1006.3
20260506151454 60 221 7.0 9.0 0.05 0.02 0.05 80 1005.6
20260506150953 61 228 4.0 8.0 0.04 0.02 0.04 77 1005.2
20260506150453 62 118 2.0 6.0 0.02 0.02 0.02 75 1005.0
20260506145954 64 248 3.0 6.0 0.02 0.01 0.02 72 1004.7
20260506145942 65 8 1.0 6.0 0.02 0.01 0.02 66 1004.6
20260506145931 66 355 2.0 8.0 0.01 0.01 0.01 65 1004.4
20260506144453 66 31 2.0 8.0 0.00 0.01 0.00 61 1004.3
20260506143958 67 63 4.0 8.0 0.00 0.01 0.00 57 1004.1
20260506143455 67 45 5.0 9.0 0.00 0.01 0.00 56 1004.1
20260506142953 68 32 6.0 10.0 0.00 0.01 0.00 55 1004.1
20260506142451 68 51 7.0 10.0 0.00 0.01 0.00 56 1004.1
20260506141951 69 56 6.0 9.0 0.00 0.01 0.00 54 1004.2
20260506141454 69 111 6.0 9.0 0.00 0.01 0.00 54 1004.3
20260506141003 70 76 4.0 7.0 0.00 0.01 0.00 52 1004.3
20260506140453 70 38 4.0 7.0 0.00 0.01 0.00 54 1004.5
20260506135952 70 55 2.0 9.0 0.00 0.01 0.00 54 1004.5
20260506135458 70 41 7.0 12.0 0.00 0.01 0.00 53 1004.4
20260506134954 70 79 5.0 12.0 0.00 0.01 0.00 55 1004.4
20260506134913 70 63 5.0 10.0 0.00 0.01 0.00 54 1004.4
20260506133951 70 0 6.0 9.0 0.00 0.01 0.00 57 1004.5
20260506133453 69 7 3.0 6.0 0.00 0.01 0.00 58 1004.6
20260506132951 69 6 2.0 10.0 0.00 0.01 0.00 56 1004.6
20260506132450 69 0 7.0 10.0 0.00 0.01 0.00 56 1004.7
20260506131949 69 25 5.0 12.0 0.00 0.01 0.00 57 1004.6
20260506131449 68 78 6.0 12.0 0.00 0.01 0.00 57 1004.6
20260506130953 68 127 0.0 7.0 0.00 0.01 0.00 53 1004.7
20260506130450 69 178 2.0 7.0 0.00 0.01 0.00 56 1004.8
20260506125950 69 89 1.0 11.0 0.00 0.01 0.00 56 1004.9
20260506125451 69 114 2.0 11.0 0.00 0.01 0.00 56 1004.9
20260506124949 68 75 4.0 9.0 0.00 0.01 0.00 57 1004.9
20260506124451 67 85 5.0 6.0 0.00 0.01 0.00 59 1005.1
20260506123953 67 148 0.0 2.0 0.00 0.01 0.00 57 1005.2
20260506123447 68 141 0.0 3.0 0.00 0.01 0.00 58 1005.2
20260506122945 67 18 1.0 3.0 0.00 0.01 0.00 59 1005.2
20260506122446 67 113 1.0 3.0 0.00 0.01 0.00 58 1005.3
20260506121954 67 56 2.0 8.0 0.00 0.01 0.00 61 1005.3
20260506121454 67 113 2.0 8.0 0.00 0.01 0.00 56 1005.4
20260506120952 67 107 0.0 7.0 0.00 0.01 0.00 57 1005.4
20260506120507 67 6 2.0 3.0 0.00 0.01 0.00 63 1005.5
20260506120452 67 86 4.0 7.0 0.00 0.01 0.00 58 1005.4
20260506115446 66 113 0.0 9.0 0.00 0.01 0.00 59 1005.5
20260506114944 66 113 1.0 10.0 0.00 0.01 0.00 56 1005.3
20260506114445 66 80 5.0 10.0 0.00 0.01 0.00 56 1005.2
20260506113944 65 120 3.0 10.0 0.00 0.01 0.00 56 1005.3
20260506113445 65 87 4.0 9.0 0.00 0.01 0.00 59 1005.4
20260506113021 65 254 0.0 5.0 0.00 0.01 0.00 58 1006.1
20260506112952 65 111 3.0 6.0 0.00 0.01 0.00 57 1005.7
20260506111944 66 261 2.0 3.0 0.00 0.01 0.00 59 1006.3
20260506111443 67 32 1.0 5.0 0.00 0.01 0.00 60 1006.3
20260506111424 66 30 2.0 6.0 0.00 0.01 0.00 63 1006.3
20260506110442 66 4 2.0 6.0 0.00 0.01 0.00 63 1006.4
20260506105942 66 96 2.0 6.0 0.00 0.01 0.00 66 1006.5